Regional Weather Roundup
Issued by NWS Charleston, SC

Home | Current Version | Previous Version | Text Only | Print | Product List | Glossary On
Versions: 1 2 3 4 5 6 7 8 9 10 11 12 13 14 15 16 17 18 19 20 21 22 23 24 25 26 27 28 29 30 31 32 33 34 35 36 37 38 39 40 41 42 43 44 45 46 47 48 49 50
000
ASUS42 KCHS 211025
RWRCHS

REGIONAL WEATHER ROUNDUP
NATIONAL WEATHER SERVICE CHARLESTON SC
500 AM EST SUN DEC 21 2014

NOTE: "FAIR" INDICATES FEW OR NO CLOUDS BELOW 12,000 FEET WITH NO
SIGNIFICANT WEATHER AND/OR OBSTRUCTIONS TO VISIBILITY.

NOT ALL STATIONS ARE QUALITY CONTROLLED BY THE NATIONAL
WEATHER SERVICE. USE DATA WITH CAUTION...ESPECIALLY
DEWPOINT OBSERVATIONS.

SCZ027-030-031-034>040-042>050-211100-
...SOUTHEAST SOUTH CAROLINA...

CITY           SKY/WX    TMP DP  RH WIND       PRES   REMARKS
N CHARLESTON   CLOUDY    45  43  93 N7        30.19F
WATERFRONT PRK NOT AVBL
MOUNT PLEASANT CLOUDY    45  45 100 N5        30.19R FOG
PINOPOLIS        N/A     45  43  93 NE13      30.11F
MONCKS CORNER  PTSUNNY   45  41  87 N5        30.20R
SUMMERVILLE    CLOUDY    45  45 100 N6        30.20S
BEAUFORT MCAS  CLOUDY    48  45  89 N9        30.18S
BEAUFORT ARPT  CLOUDY    46  46 100 N9        30.18R
HILTON HEAD IS NOT AVBL
WALTERBORO     CLOUDY    46 N/A N/A N3        30.21R
ALLENDALE      CLOUDY    46  45  93 CALM      30.20S

...SOUTHERN MIDLANDS AND PEE DEE...

CITY           SKY/WX    TMP DP  RH WIND       PRES   REMARKS
GEORGETOWN     NOT AVBL
KINGSTREE      NOT AVBL
ORANGEBURG     CLOUDY    44  39  82 NE8       30.21F
BARNWELL       CLOUDY    46  43  87 N6        30.21S
AIKEN          CLOUDY    43  43 100 NE6       30.24S
MANNING        NOT AVBL
COLUMBIA       CLOUDY    45  39  79 N3        30.22S
SUMTER         NOT AVBL
FLORENCE       CLOUDY    40  36  86 N8        30.23F WCI  34
MYRTLE BEACH   CLOUDY    43  36  75 N9        30.22S
N MYRTLE BEACH CLOUDY    41  36  82 NE8       30.22S

$$

GAZ063-065-086>088-099>101-113>116-118-119-134>141-150-211100-
...SOUTHEAST GEORGIA...

CITY           SKY/WX    TMP DP  RH WIND       PRES   REMARKS
SAVANNAH ARPT  CLOUDY    50  47  89 N9        30.17S
HUNTER AAF     DRIZZLE   50  50 100 N8        30.15R
FORT STEWART   LGT RAIN  50  48  93 N6        30.15S
STATESBORO     RAIN      47  47 100 NE5       30.19R
SYLVANIA       DRIZZLE   47  46  99 NE3       30.21R
CLAXTON        RAIN      50  50 100 NE6       30.17F

...CSRA...CENTRAL AND FAR SOUTHEAST GEORGIA...

CITY           SKY/WX    TMP DP  RH WIND       PRES   REMARKS
THOMSON        CLOUDY    48  48 100 CALM      30.26R
AUGUSTA-BUSH   CLOUDY    46  42  86 N5        30.22R
AUGUSTA-DANIEL CLOUDY    47  43  86 NE5       30.21S
SWAINSBORO     CLOUDY    50  50 100 CALM      30.20R
VIDALIA        DRIZZLE   50  50 100 NE5       30.17S
EASTMAN        CLOUDY    51  51 100 NE7       30.19S
HAZLEHURST     RAIN      53  53 100 NE5       30.14F
ALMA           CLOUDY    53  51  93 CALM      30.15R FOG
WAYCROSS       RAIN      56  56  97 NE6       30.13S
JESUP          RAIN      55  54  94 NE5       30.15R
BAXLEY         DRIZZLE   54  52  94 NE8       30.14F
BRUNSWICK      CLOUDY    54  52  94 NE9       30.14S
SAINT SIMONS   CLOUDY    54  52  93 NE12      30.12S FOG

$$

SCZ027-028-034-036>038-045-046-048>050-GAZ119-141-211100-
...LAKE AND SUPPLEMENTAL COASTAL OBSERVATIONS...

STATION/POSITION TIME  TEMP    WIND        PRES    WAVE   SWELL
                       AIR SEA DIR/SP/G            HT/PER HT/PER/DIR
                 (UTC) (F)     (DEG/KT/KT) (MB)    (FT/S) (FT/S/D)
UPR LAKE MARION  NOT AVBL
WINYAH BAY       1000   42      10/  6     1022.0S
LAKE MURRAY      1000   43      30/  1/  3 1022.7S
ACE BASIN NERRS  1000   46      10/  2     1021.0S
FORT PULASKI     1000   50 56  360/  6/  7 1021.8R
SAPELO ISLAND    1000   52      20/  8     1020.0S

$$

ANZ835-935-AMZ111-154-330-350-352-354-370-450-454-472-211100-
...C-MAN AND BUOY OBSERVATIONS...

STATION/POSITION TIME  TEMP    WIND        PRES    WAVE   SWELL
                       AIR SEA DIR/SP/G            HT/PER HT/PER/DIR
                 (UTC) (F)     (DEG/KT/KT) (MB)    (FT/S) (FT/S/D)
BUOY 41004       1000   61 70   30/ 19/ 23 1019.4F   6/ 8
BUOY 41008       1000   56 59   30/ 17/ 21 1019.4F   5/ 6   2/ 60/10
FOLLY BEACH CMAN 1000   47      20/ 11/ 13 1021.9F
CAPERS NEARSHORE 0900   47      30/ 14/ 17   N/A
FRIPP NEARSHORE  NOT AVBL


STATION/POSITION TIME  TEMP    WIND        PRES    WAVE   SWELL
                       AIR SEA DIR/SP/G            HT/PER HT/PER/DIR
                 (UTC) (F)     (DEG/KT/KT) (MB)    (FT/S) (FT/S/D)
5E ST. MARYS GA  1000      62                N/A     5/ 6
FRYING PAN BUOY  1000   58 69   40/ 17/ 21 1022.0R   4/ 6   2/160/10
BUOY 41025       1000   49                 1023.1F   3/ 4
CAPE LOOKOUT NC  1000   42      20/ 11/ 13 1023.6S
BUOY 41002       0937   67 71   80/ 19/ 21 1019.4F   6/ 6   2/ 90/11
BUOY 41010       1000   75 76  190/ 12/ 14 1018.1S   2/10   2/120/10
ST AUGUSTINE FL  1000   62     360/ 10/ 11 1019.1F


$$


USA.gov is the U.S. government's official web portal to all federal, state and local government web resources and services.